Wetterdaten: aktuell Mittwoch, 06.05.2026 13:25
Datum Zeit Temp. A. Feuchte A. Luftdruck Regen Wind Richtung Richtung Taupunkt Windchill
06.05.2026 13:25 19,6 °C 41 % 997,9 hPa 0,0 l/m² 8,1 km/h (2 Bft) SO±22.5° 130 ° 6,0 °C 18,9 °C
06.05.2026 13:23 19,6 °C 41 % 997,9 hPa 0,0 l/m² 7,7 km/h (2 Bft) SO±67.5° 140 ° 6,0 °C 19,1 °C
06.05.2026 13:21 19,6 °C 41 % 997,9 hPa 0,0 l/m² 7,7 km/h (2 Bft) SO±67.5° 140 ° 6,0 °C 19,1 °C
06.05.2026 13:18 19,6 °C 41 % 997,9 hPa 0,0 l/m² 10,7 km/h (2 Bft) SO±45° 140 ° 6,0 °C 18,0 °C
06.05.2026 13:16 19,6 °C 42 % 997,9 hPa 0,0 l/m² 9,0 km/h (2 Bft) S-SW±67.5° 195 ° 6,3 °C 18,6 °C
06.05.2026 13:14 19,7 °C 42 % 997,9 hPa 0,0 l/m² 10,8 km/h (2 Bft) SO±45° 130 ° 6,4 °C 18,0 °C
06.05.2026 13:13 19,7 °C 42 % 997,9 hPa 0,0 l/m² 10,8 km/h (2 Bft) SO±45° 130 ° 6,4 °C 18,0 °C
06.05.2026 13:11 19,7 °C 44 % 997,9 hPa 0,0 l/m² 9,2 km/h (2 Bft) SO±67.5° 145 ° 7,1 °C 18,6 °C
06.05.2026 13:09 19,7 °C 44 % 997,9 hPa 0,0 l/m² 8,7 km/h (2 Bft) SO±45° 140 ° 7,1 °C 18,8 °C
06.05.2026 13:07 19,7 °C 44 % 997,9 hPa 0,0 l/m² 8,7 km/h (2 Bft) SO±45° 140 ° 7,1 °C 18,8 °C
06.05.2026 13:05 19,6 °C 44 % 997,9 hPa 0,0 l/m² 8,1 km/h (2 Bft) SO±45° 140 ° 7,0 °C 18,9 °C
06.05.2026 13:03 19,6 °C 44 % 997,9 hPa 0,0 l/m² 4,5 km/h (1 Bft) SO±67.5° 130 ° 7,0 °C 19,6 °C
06.05.2026 13:01 19,6 °C 44 % 997,9 hPa 0,0 l/m² 4,3 km/h (1 Bft) S-SO±45° 150 ° 7,0 °C 19,6 °C
06.05.2026 12:59 19,5 °C 44 % 997,9 hPa 0,0 l/m² 4,3 km/h (1 Bft) S-SO±45° 150 ° 6,9 °C 19,5 °C
06.05.2026 12:57 19,5 °C 44 % 997,9 hPa 0,0 l/m² 4,9 km/h (1 Bft) S-SO±45° 150 ° 6,9 °C 19,5 °C
06.05.2026 12:55 19,5 °C 44 % 997,9 hPa 0,0 l/m² 8,9 km/h (2 Bft) SO±22.5° 135 ° 6,9 °C 18,5 °C
06.05.2026 12:53 19,5 °C 45 % 997,9 hPa 0,0 l/m² 9,7 km/h (2 Bft) O-SO±22.5° 115 ° 7,2 °C 18,2 °C
06.05.2026 12:51 19,4 °C 44 % 997,9 hPa 0,0 l/m² 9,7 km/h (2 Bft) O-SO±22.5° 115 ° 6,8 °C 18,1 °C
06.05.2026 12:49 19,4 °C 44 % 997,9 hPa 0,0 l/m² 11,5 km/h (2 Bft) O-SO±45° 115 ° 6,8 °C 17,5 °C
06.05.2026 12:47 19,4 °C 46 % 997,9 hPa 0,0 l/m² 4,5 km/h (1 Bft) O-SO±22.5° 120 ° 7,5 °C 19,4 °C
06.05.2026 12:45 19,3 °C 46 % 997,9 hPa 0,0 l/m² 4,5 km/h (1 Bft) O-SO±22.5° 120 ° 7,4 °C 19,3 °C
06.05.2026 12:43 19,3 °C 46 % 997,9 hPa 0,0 l/m² 6,7 km/h (2 Bft) O±45° 100 ° 7,4 °C 19,2 °C
06.05.2026 12:41 19,3 °C 45 % 997,9 hPa 0,0 l/m² 4,0 km/h (1 Bft) O±22.5° 100 ° 7,1 °C 19,3 °C
06.05.2026 12:39 19,3 °C 47 % 997,9 hPa 0,0 l/m² 11,8 km/h (2 Bft) SO±45° 145 ° 7,7 °C 17,3 °C
06.05.2026 12:36 19,3 °C 47 % 997,9 hPa 0,0 l/m² 11,8 km/h (2 Bft) SO±45° 145 ° 7,7 °C 17,3 °C
06.05.2026 12:34 19,1 °C 48 % 997,9 hPa 0,0 l/m² 8,8 km/h (2 Bft) SO±67.5° 135 ° 7,8 °C 18,1 °C
06.05.2026 12:33 18,9 °C 49 % 997,9 hPa 0,0 l/m² 8,8 km/h (2 Bft) SO±67.5° 135 ° 7,9 °C 17,9 °C
06.05.2026 12:31 18,9 °C 49 % 997,9 hPa 0,0 l/m² 8,9 km/h (2 Bft) O-SO±67.5° 120 ° 7,9 °C 17,8 °C
06.05.2026 12:29 18,6 °C 49 % 998,0 hPa 0,0 l/m² 8,9 km/h (2 Bft) O-SO±67.5° 120 ° 7,7 °C 17,5 °C
06.05.2026 12:27 18,5 °C 50 % 998,0 hPa 0,0 l/m² 7,4 km/h (2 Bft) O±67.5° 95 ° 7,9 °C 18,0 °C
06.05.2026 12:25 18,5 °C 50 % 998,0 hPa 0,0 l/m² 7,0 km/h (2 Bft) N-NW±22.5° 340 ° 7,9 °C 18,2 °C
06.05.2026 12:23 18,2 °C 51 % 998,0 hPa 0,0 l/m² 7,0 km/h (2 Bft) N-NW±22.5° 340 ° 7,9 °C 17,9 °C
06.05.2026 12:21 18,1 °C 51 % 998,0 hPa 0,0 l/m² 3,6 km/h (1 Bft) NO±22.5° 55 ° 7,8 °C 18,1 °C
06.05.2026 12:19 18,0 °C 51 % 998,0 hPa 0,0 l/m² 7,0 km/h (2 Bft) O-SO±67.5° 115 ° 7,7 °C 17,7 °C
06.05.2026 12:17 18,0 °C 51 % 998,0 hPa 0,0 l/m² 8,5 km/h (2 Bft) S-SO±45° 150 ° 7,7 °C 17,0 °C
06.05.2026 12:15 17,9 °C 51 % 998,0 hPa 0,0 l/m² 8,5 km/h (2 Bft) S-SO±45° 150 ° 7,6 °C 16,9 °C
06.05.2026 12:13 17,8 °C 51 % 998,0 hPa 0,0 l/m² 8,5 km/h (2 Bft) NO±67.5° 40 ° 7,5 °C 16,8 °C
06.05.2026 12:11 17,8 °C 51 % 998,0 hPa 0,0 l/m² 3,6 km/h (1 Bft) NO±67.5° 45 ° 7,5 °C 17,8 °C
06.05.2026 12:09 17,7 °C 53 % 998,0 hPa 0,0 l/m² 3,6 km/h (1 Bft) NO±67.5° 45 ° 8,0 °C 17,7 °C
06.05.2026 12:07 17,6 °C 53 % 998,0 hPa 0,0 l/m² 0,8 km/h (0 Bft) O±67.5° 100 ° 7,9 °C 17,6 °C
06.05.2026 12:05 17,6 °C 53 % 998,0 hPa 0,0 l/m² 2,1 km/h (1 Bft) S-SO±22.5° 150 ° 7,9 °C 17,6 °C
_ Min-Zeit 06:17 13:18 13:07 - 00:00 - - 13:18 06:17
Minimum _ 13,3 °C 41 % 997,9 hPa - 0,0 km/h (0 Bft) - - 6,0 °C 13,3 °C
_ Max-Zeit 13:07 02:14 03:29 00:45 12:36 - - 00:00 13:01
Maximum _ 19,7 °C 86 % 999,1 hPa 0,4 l/m² 11,8 km/h
SO (2 Bft)
- - 12,5 °C 19,6 °C
Durchschnitt _ 15,5 °C 75 % 998,3 hPa #2,9 l/m² 2,7 km/h (1 Bft) SO - 10,6 °C 15,3 °C